Regional Weather Roundup
Issued by NWS

Home | Current Version | Previous Version | Text Only | Print | Product List | Glossary On
Versions: 1 2 3 4 5 6 7 8 9 10 11 12 13 14 15 16 17 18 19 20 21 22 23 24 25 26 27 28 29 30 31 32 33 34 35 36 37 38 39 40 41 42 43 44 45 46 47 48 49 50
000
ASUS45 KABQ 231210
RWRNM
NEW MEXICO REGIONAL WEATHER ROUNDUP
NATIONAL WEATHER SERVICE ALBUQUERQUE NM
500 AM MST FRI FEB 23 2018

NOTE: "FAIR" MEANS FEW OR NO CLOUDS BELOW 12,000 FEET AGL WITH NO
       SIGNIFICANT WEATHER OR OBSTRUCTIONS TO VISION.

      THIS PRODUCT IS RELEASED AS TWO VERSIONS.  ONE VERSION NEAR
      THE TOP OF THE HOUR CONTAINING PRELIMINARY DATA FROM ALBUQUERQUE
      AND OTHER STATIONS.  A FINAL VERSION WITH ADDITIONAL DATA IS
      ISSUED ABOUT 10 MINUTES AFTER THE HOUR.

NMZ501-503-504-510>518-231300-
NORTHWEST PLATEAU/NORTHCENTRAL MOUNTAINS

CITY           SKY/WX    TMP DP  RH WIND       PRES   REMARKS
FARMINGTON     FAIR      20  10  65 E7        30.03S WCI  11
6HR MIN TEMP:  18; 6HR MAX TEMP:  30;

LOS ALAMOS     FAIR      24  13  61 CALM      30.05S
SANTA FE       FAIR      18  15  88 N10       30.04F WCI   6
6HR MIN TEMP:  16; 6HR MAX TEMP:  23;

TAOS           FAIR       3   0  87 N6        30.08S WCI  -8
ANGEL FIRE     FAIR      -1  -4  86 CALM      30.02R

$$
NMZ402-403-502-505>509-231300-
WESTCENTRAL MOUNTAINS/SOUTHWEST MOUNTAINS

CITY           SKY/WX    TMP DP  RH WIND       PRES   REMARKS
GALLUP         FAIR      19  13  77 S8        30.03S WCI   9
6HR MIN TEMP:  13; 6HR MAX TEMP:  25;

GRANTS         FAIR      14   7  75 W5        30.06S WCI   6
SILVER CITY    FAIR      25  20  82 N9        30.09S WCI  15

$$
NMZ407-409-411-412-231300-
SOUTHERN DESERTS

CITY           SKY/WX    TMP DP  RH WIND       PRES   REMARKS
DEMING         FAIR      27  21  78 NW5       30.09S WCI  22
6HR MIN TEMP:  27; 6HR MAX TEMP:  36;

LAS CRUCES     FAIR      29  21  71 CALM      30.09F
HOLLOMAN AFB   FAIR      33  22  64 SE5       30.10F WCI  29
ALAMOGORDO     FAIR      37  19  48 NE3       30.09F
T OR C         FAIR      31  17  56 W5        30.05F WCI  26
6HR MIN TEMP:  30; 6HR MAX TEMP:  40;


$$
NMZ519>523-231300-
CENTRAL VALLEYS/CENTRAL HIGHLANDS

CITY           SKY/WX    TMP DP  RH WIND       PRES   REMARKS
ALBUQUERQUE    FAIR      28  16  60 N9        30.05F WCI  19
6HR MIN TEMP:  28; 6HR MAX TEMP:  34;

MORIARTY ARPT  FAIR      11   8  86 NE5       30.06S WCI   3
6HR MIN TEMP:  10; 6HR MAX TEMP:  18;

CLINES CORNERS NOT AVBL
BELEN          FAIR      26  10  52 N3        30.06S
6HR MIN TEMP:  24; 6HR MAX TEMP:  40;

SOCORRO        FAIR      29  13  51 S8        30.05F WCI  22
6HR MIN TEMP:  29; 6HR MAX TEMP:  38;


$$
NMZ524>526-539-540-231300-
SOUTHCENTRAL MOUNTAINS

CITY           SKY/WX    TMP DP  RH WIND       PRES   REMARKS
RUIDOSO        NOT AVBL

$$
NMZ527>531-231300-
NORTHEAST HIGHLANDS/NORTHEAST PLAINS

CITY           SKY/WX    TMP DP  RH WIND       PRES   REMARKS
LAS VEGAS      FAIR      19   8  62 S13       30.01F WCI   6
6HR MIN TEMP:  17; 6HR MAX TEMP:  25;

RATON          FAIR      13   5  70 N7        30.01S WCI   3
6HR MIN TEMP:   9; 6HR MAX TEMP:  19;

CLAYTON        FAIR      27  13  55 SW9       30.01F WCI  18
6HR MIN TEMP:  26; 6HR MAX TEMP:  30;


$$
NMZ532>537-231300-
EASTCENTRAL PLAINS

CITY           SKY/WX    TMP DP  RH WIND       PRES   REMARKS
SANTA ROSA     FAIR      25  13  60 SW6       30.06S WCI  18
TUCUMCARI      FAIR      26  17  68 W8        30.04S WCI  18
6HR MIN TEMP:  25; 6HR MAX TEMP:  37;

CANNON AFB     FAIR      33  29  84 NW14      30.06F WCI  24
6HR MIN TEMP:  27; 6HR MAX TEMP:  36;

CLOVIS AIRPORT NOT AVBL

$$
NMZ028-029-538-231300-
SOUTHEAST PLAINS

CITY           SKY/WX    TMP DP  RH WIND       PRES   REMARKS
ROSWELL        FAIR      31  26  82 W5        30.08R WCI  26
6HR MIN TEMP:  28; 6HR MAX TEMP:  38;

ARTESIA        FAIR      30  32 100 S7        30.08F WCI  23
CARLSBAD       FAIR      29  25  85 CALM      30.08S
6HR MIN TEMP:  29; 6HR MAX TEMP:  35;

HOBBS          FAIR      27  23  86 N5        30.09F WCI  21


$$




USA.gov is the U.S. government's official web portal to all federal, state and local government web resources and services.